{"data":{"norad_id":54117,"epoch":"2026-09-19T19:53:41.935776Z","epoch_age_seconds":83811,"freshness":"FRESH","line1":"1 54117U 22138E   26262.82895759 -.00000037  00000+0 -12454-3 0  9995","line2":"2 54117  87.9109 286.1136 0002010  87.0204 273.1158 13.19723136189309","mean_motion":13.19723136,"eccentricity":0.000201,"inclination_deg":87.9109,"raan_deg":286.1136,"arg_perigee_deg":87.0204,"mean_anomaly_deg":273.1158,"bstar":-0.00012454,"rev_number":18930,"period_min":109.11379521348,"perigee_km":1184.25732741,"apogee_km":1187.298021109,"semimajor_km":7563.9146742595,"source":"CELESTRAK","updated_at":"2026-09-20T09:00:44.715729Z"}}